Year,Month,Day,Hour,Minute,Value (Times are PST for temperature in C)
2016,08,24,00,00,13.40
2016,08,24,00,01,13.40
2016,08,24,00,02,13.40
2016,08,24,00,03,13.40
2016,08,24,00,04,13.40
2016,08,24,00,05,13.40
2016,08,24,00,06,13.40
2016,08,24,00,07,13.40
2016,08,24,00,08,13.40
2016,08,24,00,09,13.40
2016,08,24,00,10,13.40
2016,08,24,00,11,13.30
2016,08,24,00,12,13.30
2016,08,24,00,13,13.40
2016,08,24,00,14,13.50
2016,08,24,00,15,13.60
2016,08,24,00,16,13.60
2016,08,24,00,17,13.70
2016,08,24,00,18,13.70
2016,08,24,00,19,13.70
2016,08,24,00,20,13.70
2016,08,24,00,21,13.70
2016,08,24,00,22,13.70
2016,08,24,00,23,13.70
2016,08,24,00,24,13.70
2016,08,24,00,25,13.70
2016,08,24,00,26,13.70
2016,08,24,00,27,13.70
2016,08,24,00,28,13.70
2016,08,24,00,29,13.70
2016,08,24,00,30,13.70
2016,08,24,00,31,13.80
2016,08,24,00,32,13.80
2016,08,24,00,33,13.80
2016,08,24,00,34,13.80
2016,08,24,00,35,13.80
2016,08,24,00,36,13.80
2016,08,24,00,37,13.80
2016,08,24,00,38,13.80
2016,08,24,00,39,13.80
2016,08,24,00,40,13.80
2016,08,24,00,41,13.80
2016,08,24,00,42,13.80
2016,08,24,00,43,13.80
2016,08,24,00,44,13.80
2016,08,24,00,45,13.80
2016,08,24,00,46,13.80
2016,08,24,00,47,13.80
2016,08,24,00,48,13.80
2016,08,24,00,49,13.80
2016,08,24,00,50,13.80
2016,08,24,00,51,13.70
2016,08,24,00,52,13.70
2016,08,24,00,53,13.70
2016,08,24,00,54,13.70
2016,08,24,00,55,13.70
2016,08,24,00,56,13.70
2016,08,24,00,57,13.70
2016,08,24,00,58,13.60
2016,08,24,00,59,13.60
2016,08,24,01,00,13.60
2016,08,24,01,01,13.60
2016,08,24,01,02,13.60
2016,08,24,01,03,13.50
2016,08,24,01,04,13.50
2016,08,24,01,05,13.40
2016,08,24,01,06,13.30
2016,08,24,01,07,13.30
2016,08,24,01,08,13.30
2016,08,24,01,09,13.30
2016,08,24,01,10,13.30
2016,08,24,01,11,13.30
2016,08,24,01,12,13.30
2016,08,24,01,13,13.30
2016,08,24,01,14,13.20
2016,08,24,01,15,13.10
2016,08,24,01,16,13.10
2016,08,24,01,17,13.00
2016,08,24,01,18,13.00
2016,08,24,01,19,13.00
2016,08,24,01,20,13.00
2016,08,24,01,21,12.90
2016,08,24,01,22,12.90
2016,08,24,01,23,12.90
2016,08,24,01,24,12.90
2016,08,24,01,25,13.00
2016,08,24,01,26,13.00
2016,08,24,01,27,13.10
2016,08,24,01,28,13.10
2016,08,24,01,29,13.10
2016,08,24,01,30,13.10
2016,08,24,01,31,13.20
2016,08,24,01,32,13.20
2016,08,24,01,33,13.20
2016,08,24,01,34,13.20
2016,08,24,01,35,13.10
2016,08,24,01,36,13.10
2016,08,24,01,37,13.10
2016,08,24,01,38,13.10
2016,08,24,01,39,13.10
2016,08,24,01,40,13.10
2016,08,24,01,41,13.00
2016,08,24,01,42,13.00
2016,08,24,01,43,13.00
2016,08,24,01,44,13.00
2016,08,24,01,45,13.00
2016,08,24,01,46,13.00
2016,08,24,01,47,13.00
2016,08,24,01,48,13.00
2016,08,24,01,49,13.00
2016,08,24,01,50,13.00
2016,08,24,01,51,13.00
2016,08,24,01,52,13.00
2016,08,24,01,53,13.00
2016,08,24,01,54,13.00
2016,08,24,01,55,13.00
2016,08,24,01,56,13.00
2016,08,24,01,57,13.00
2016,08,24,01,58,13.00
2016,08,24,01,59,13.00
2016,08,24,02,00,13.00
2016,08,24,02,01,13.00
2016,08,24,02,02,13.00
2016,08,24,02,03,13.00
2016,08,24,02,04,13.00
2016,08,24,02,05,13.00
2016,08,24,02,06,13.00
2016,08,24,02,07,13.00
2016,08,24,02,08,13.00
2016,08,24,02,09,13.00
2016,08,24,02,10,13.00
2016,08,24,02,11,13.00
2016,08,24,02,12,13.00
2016,08,24,02,13,13.00
2016,08,24,02,14,13.00
2016,08,24,02,15,13.00
2016,08,24,02,16,13.00
2016,08,24,02,17,13.00
2016,08,24,02,18,13.00
2016,08,24,02,19,13.00
2016,08,24,02,20,13.00
2016,08,24,02,21,13.00
2016,08,24,02,22,13.00
2016,08,24,02,23,12.90
2016,08,24,02,24,12.90
2016,08,24,02,25,12.90
2016,08,24,02,26,12.90
2016,08,24,02,27,12.90
2016,08,24,02,28,12.90
2016,08,24,02,29,12.90
2016,08,24,02,30,12.90
2016,08,24,02,31,12.90
2016,08,24,02,32,12.90
2016,08,24,02,33,12.90
2016,08,24,02,34,13.00
2016,08,24,02,35,13.00
2016,08,24,02,36,13.10
2016,08,24,02,37,13.10
2016,08,24,02,38,13.10
2016,08,24,02,39,13.10
2016,08,24,02,40,13.10
2016,08,24,02,41,13.00
2016,08,24,02,42,13.00
2016,08,24,02,43,13.00
2016,08,24,02,44,13.00
2016,08,24,02,45,13.10
2016,08,24,02,46,13.10
2016,08,24,02,47,13.20
2016,08,24,02,48,13.20
2016,08,24,02,49,13.30
2016,08,24,02,50,13.30
2016,08,24,02,51,13.30
2016,08,24,02,52,13.30
2016,08,24,02,53,13.30
2016,08,24,02,54,13.30
2016,08,24,02,55,13.30
2016,08,24,02,56,13.30
2016,08,24,02,57,13.30
2016,08,24,02,58,13.30
2016,08,24,02,59,13.30
2016,08,24,03,00,13.30
2016,08,24,03,01,13.30
2016,08,24,03,02,13.30
2016,08,24,03,03,13.30
2016,08,24,03,04,13.30
2016,08,24,03,05,13.30
2016,08,24,03,06,13.30
2016,08,24,03,07,13.30
2016,08,24,03,08,13.30
2016,08,24,03,09,13.30
2016,08,24,03,10,13.30
2016,08,24,03,11,13.30
2016,08,24,03,12,13.30
2016,08,24,03,13,13.30
2016,08,24,03,14,13.30
2016,08,24,03,15,13.30
2016,08,24,03,16,13.30
2016,08,24,03,17,13.30
2016,08,24,03,18,13.30
2016,08,24,03,19,13.30
2016,08,24,03,20,13.30
2016,08,24,03,21,13.30
2016,08,24,03,22,13.30
2016,08,24,03,23,13.30
2016,08,24,03,24,13.30
2016,08,24,03,25,13.30
2016,08,24,03,26,13.30
2016,08,24,03,27,13.30
2016,08,24,03,28,13.30
2016,08,24,03,29,13.30
2016,08,24,03,30,13.30
2016,08,24,03,31,13.40
2016,08,24,03,32,13.40
2016,08,24,03,33,13.50
2016,08,24,03,34,13.50
2016,08,24,03,35,13.50
2016,08,24,03,36,13.50
2016,08,24,03,37,13.60
2016,08,24,03,38,13.50
2016,08,24,03,39,13.50
2016,08,24,03,40,13.40
2016,08,24,03,41,13.40
2016,08,24,03,42,13.30
2016,08,24,03,43,13.20
2016,08,24,03,44,13.20
2016,08,24,03,45,13.20
2016,08,24,03,46,13.20
2016,08,24,03,47,13.10
2016,08,24,03,48,13.10
2016,08,24,03,49,13.10
2016,08,24,03,50,13.10
2016,08,24,03,51,13.10
2016,08,24,03,52,13.00
2016,08,24,03,53,13.00
2016,08,24,03,54,13.00
2016,08,24,03,55,13.00
2016,08,24,03,56,12.90
2016,08,24,03,57,12.90
2016,08,24,03,58,12.90
2016,08,24,03,59,12.90
2016,08,24,04,00,12.80
2016,08,24,04,01,12.80
2016,08,24,04,02,12.80
2016,08,24,04,03,12.80
2016,08,24,04,04,12.80
2016,08,24,04,05,12.80
2016,08,24,04,06,12.80
2016,08,24,04,07,12.80
2016,08,24,04,08,12.80
2016,08,24,04,09,12.80
2016,08,24,04,10,12.80
2016,08,24,04,11,12.80
2016,08,24,04,12,12.80
2016,08,24,04,13,12.80
2016,08,24,04,14,12.80
2016,08,24,04,15,12.80
2016,08,24,04,16,12.80
2016,08,24,04,17,12.90
2016,08,24,04,18,12.90
2016,08,24,04,19,13.00
2016,08,24,04,20,13.00
2016,08,24,04,21,13.00
2016,08,24,04,22,13.10
2016,08,24,04,23,13.10
2016,08,24,04,24,13.20
2016,08,24,04,25,13.20
2016,08,24,04,26,13.20
2016,08,24,04,27,13.20
2016,08,24,04,28,13.10
2016,08,24,04,29,13.10
2016,08,24,04,30,13.10
2016,08,24,04,31,13.10
2016,08,24,04,32,13.00
2016,08,24,04,33,13.00
2016,08,24,04,34,13.00
2016,08,24,04,35,13.10
2016,08,24,04,36,13.00
2016,08,24,04,37,13.00
2016,08,24,04,38,13.00
2016,08,24,04,39,13.00
2016,08,24,04,40,13.00
2016,08,24,04,41,13.00
2016,08,24,04,42,13.00
2016,08,24,04,43,13.00
2016,08,24,04,44,12.90
2016,08,24,04,45,12.90
2016,08,24,04,46,12.90
2016,08,24,04,47,12.90
2016,08,24,04,48,12.90
2016,08,24,04,49,12.90
2016,08,24,04,50,13.00
2016,08,24,04,51,13.00
2016,08,24,04,52,13.00
2016,08,24,04,53,13.00
2016,08,24,04,54,13.00
2016,08,24,04,55,13.00
2016,08,24,04,56,12.90
2016,08,24,04,57,12.80
2016,08,24,04,58,12.80
2016,08,24,04,59,12.80
2016,08,24,05,00,12.80
2016,08,24,05,01,12.80
2016,08,24,05,02,12.70
2016,08,24,05,03,12.70
2016,08,24,05,04,12.70
2016,08,24,05,05,12.60
2016,08,24,05,06,12.60
2016,08,24,05,07,12.60
2016,08,24,05,08,12.60
2016,08,24,05,09,12.60
2016,08,24,05,10,12.60
2016,08,24,05,11,12.60
2016,08,24,05,12,12.60
2016,08,24,05,13,12.60
2016,08,24,05,14,12.60
2016,08,24,05,15,12.70
2016,08,24,05,16,12.70
2016,08,24,05,17,12.70
2016,08,24,05,18,12.70
2016,08,24,05,19,12.70
2016,08,24,05,20,12.70
2016,08,24,05,21,12.70
2016,08,24,05,22,12.70
2016,08,24,05,23,12.70
2016,08,24,05,24,12.70
2016,08,24,05,25,12.70
2016,08,24,05,26,12.70
2016,08,24,05,27,12.70
2016,08,24,05,28,12.70
2016,08,24,05,29,12.80
2016,08,24,05,30,12.80
2016,08,24,05,31,12.80
2016,08,24,05,32,12.80
2016,08,24,05,33,12.80
2016,08,24,05,34,12.80
2016,08,24,05,35,12.80
2016,08,24,05,36,12.80
2016,08,24,05,37,12.70
2016,08,24,05,38,12.70
2016,08,24,05,39,12.70
2016,08,24,05,40,12.70
2016,08,24,05,41,12.60
2016,08,24,05,42,12.60
2016,08,24,05,43,12.60
2016,08,24,05,44,12.60
2016,08,24,05,45,12.60
2016,08,24,05,46,12.50
2016,08,24,05,47,12.50
2016,08,24,05,48,12.50
2016,08,24,05,49,12.60
2016,08,24,05,50,12.60
2016,08,24,05,51,12.50
2016,08,24,05,52,12.50
2016,08,24,05,53,12.50
2016,08,24,05,54,12.50
2016,08,24,05,55,12.50
2016,08,24,05,56,12.50
2016,08,24,05,57,12.50
2016,08,24,05,58,12.50
2016,08,24,05,59,12.50
2016,08,24,06,00,12.50
2016,08,24,06,01,12.50
2016,08,24,06,02,12.50
2016,08,24,06,03,12.50
2016,08,24,06,04,12.50
2016,08,24,06,05,12.60
2016,08,24,06,06,12.60
2016,08,24,06,07,12.70
2016,08,24,06,08,12.70
2016,08,24,06,09,12.70
2016,08,24,06,10,12.70
2016,08,24,06,11,12.60
2016,08,24,06,12,12.50
2016,08,24,06,13,12.50
2016,08,24,06,14,12.50
2016,08,24,06,15,12.50
2016,08,24,06,16,12.50
2016,08,24,06,17,12.50
2016,08,24,06,18,12.50
2016,08,24,06,19,12.50
2016,08,24,06,20,12.50
2016,08,24,06,21,12.50
2016,08,24,06,22,12.50
2016,08,24,06,23,12.50
2016,08,24,06,24,12.40
2016,08,24,06,25,12.50
2016,08,24,06,26,12.50
2016,08,24,06,27,12.50
2016,08,24,06,28,12.60
2016,08,24,06,29,12.70
2016,08,24,06,30,12.80
2016,08,24,06,31,12.80
2016,08,24,06,32,12.80
2016,08,24,06,33,12.80
2016,08,24,06,34,12.80
2016,08,24,06,35,12.80
2016,08,24,06,36,12.80
2016,08,24,06,37,12.80
2016,08,24,06,38,12.80
2016,08,24,06,39,12.80
2016,08,24,06,40,12.80
2016,08,24,06,41,12.80
2016,08,24,06,42,12.90
2016,08,24,06,43,13.00
2016,08,24,06,44,13.00
2016,08,24,06,45,13.00
2016,08,24,06,46,13.10
2016,08,24,06,47,13.10
2016,08,24,06,48,13.20
2016,08,24,06,49,13.20
2016,08,24,06,50,13.30
2016,08,24,06,51,13.30
2016,08,24,06,52,13.30
2016,08,24,06,53,13.30
2016,08,24,06,54,13.40
2016,08,24,06,55,13.40
2016,08,24,06,56,13.40
2016,08,24,06,57,13.30
2016,08,24,06,58,13.30
2016,08,24,06,59,13.30
2016,08,24,07,00,13.20
2016,08,24,07,01,13.20
2016,08,24,07,02,13.30
2016,08,24,07,03,13.30
2016,08,24,07,04,13.30
2016,08,24,07,05,13.40
2016,08,24,07,06,13.50
2016,08,24,07,07,13.70
2016,08,24,07,08,13.80
2016,08,24,07,09,13.90
2016,08,24,07,10,14.10
2016,08,24,07,11,14.20
2016,08,24,07,12,14.40
2016,08,24,07,13,14.50
2016,08,24,07,14,14.70
2016,08,24,07,15,14.90
2016,08,24,07,16,15.00
2016,08,24,07,17,15.20
2016,08,24,07,18,15.30
2016,08,24,07,19,15.50
2016,08,24,07,20,15.60
2016,08,24,07,21,15.80
2016,08,24,07,22,15.90
2016,08,24,07,23,16.00
2016,08,24,07,24,16.20
2016,08,24,07,25,16.30
2016,08,24,07,26,16.50
2016,08,24,07,27,16.60
2016,08,24,07,28,16.70
2016,08,24,07,29,16.80
2016,08,24,07,30,17.00
2016,08,24,07,31,17.00
2016,08,24,07,32,17.10
2016,08,24,07,33,17.30
2016,08,24,07,34,17.40
2016,08,24,07,35,17.50
2016,08,24,07,36,17.50
2016,08,24,07,37,17.60
2016,08,24,07,38,17.70
2016,08,24,07,39,17.70
2016,08,24,07,40,17.80
2016,08,24,07,41,17.80
2016,08,24,07,42,17.80
2016,08,24,07,43,17.70
2016,08,24,07,44,17.70
2016,08,24,07,45,17.70
2016,08,24,07,46,17.60
2016,08,24,07,47,17.60
2016,08,24,07,48,17.50
2016,08,24,07,49,17.40
2016,08,24,07,50,17.30
2016,08,24,07,51,17.20
2016,08,24,07,52,17.10
2016,08,24,07,53,17.10
2016,08,24,07,54,17.10
2016,08,24,07,55,17.00
2016,08,24,07,56,17.00
2016,08,24,07,57,17.00
2016,08,24,07,58,16.90
2016,08,24,07,59,16.90
2016,08,24,08,00,17.00
2016,08,24,08,01,17.00
2016,08,24,08,02,17.00
2016,08,24,08,03,17.00
2016,08,24,08,04,17.10
2016,08,24,08,05,17.10
2016,08,24,08,06,17.10
2016,08,24,08,07,17.00
2016,08,24,08,08,17.00
2016,08,24,08,09,17.10
2016,08,24,08,10,17.10
2016,08,24,08,11,17.10
2016,08,24,08,12,17.20
2016,08,24,08,13,17.10
2016,08,24,08,14,17.10
2016,08,24,08,15,17.20
2016,08,24,08,16,17.20
2016,08,24,08,17,17.30
2016,08,24,08,18,17.30
2016,08,24,08,19,17.30
2016,08,24,08,20,17.30
2016,08,24,08,21,17.40
2016,08,24,08,22,17.40
2016,08,24,08,23,17.40
2016,08,24,08,24,17.40
2016,08,24,08,25,17.50
2016,08,24,08,26,17.60
2016,08,24,08,27,17.60
2016,08,24,08,28,17.70
2016,08,24,08,29,17.80
2016,08,24,08,30,17.80
2016,08,24,08,31,17.80
2016,08,24,08,32,17.80
2016,08,24,08,33,17.80
2016,08,24,08,34,17.90
2016,08,24,08,35,18.00
2016,08,24,08,36,18.20
2016,08,24,08,37,18.30
2016,08,24,08,38,18.40
2016,08,24,08,39,18.50
2016,08,24,08,40,18.50
2016,08,24,08,41,18.60
2016,08,24,08,42,18.70
2016,08,24,08,43,18.80
2016,08,24,08,44,18.90
2016,08,24,08,45,18.90
2016,08,24,08,46,19.10
2016,08,24,08,47,19.10
2016,08,24,08,48,19.30
2016,08,24,08,49,19.40
2016,08,24,08,50,19.50
2016,08,24,08,51,19.50
2016,08,24,08,52,19.50
2016,08,24,08,53,19.40
2016,08,24,08,54,19.20
2016,08,24,08,55,19.00
2016,08,24,08,56,18.90
2016,08,24,08,57,18.80
2016,08,24,08,58,18.80
2016,08,24,08,59,18.80
2016,08,24,09,00,18.80
2016,08,24,09,01,18.80
2016,08,24,09,02,18.80
2016,08,24,09,03,18.80
2016,08,24,09,04,18.80
2016,08,24,09,05,18.80
2016,08,24,09,06,18.70
2016,08,24,09,07,18.70
2016,08,24,09,08,18.60
2016,08,24,09,09,18.60
2016,08,24,09,10,18.60
2016,08,24,09,11,18.70
2016,08,24,09,12,18.70
2016,08,24,09,13,18.80
2016,08,24,09,14,18.80
2016,08,24,09,15,18.80
2016,08,24,09,16,18.80
2016,08,24,09,17,18.80
2016,08,24,09,18,18.90
2016,08,24,09,19,18.90
2016,08,24,09,20,18.90
2016,08,24,09,21,18.90
2016,08,24,09,22,19.10
2016,08,24,09,23,19.10
2016,08,24,09,24,19.10
2016,08,24,09,25,19.20
2016,08,24,09,26,19.20
2016,08,24,09,27,19.30
2016,08,24,09,28,19.30
2016,08,24,09,29,19.40
2016,08,24,09,30,19.40
2016,08,24,09,31,19.40
2016,08,24,09,32,19.40
2016,08,24,09,33,19.40
2016,08,24,09,34,19.50
2016,08,24,09,35,19.50
2016,08,24,09,36,19.50
2016,08,24,09,37,19.50
2016,08,24,09,38,19.50
2016,08,24,09,39,19.50
2016,08,24,09,40,19.50
2016,08,24,09,41,19.50
2016,08,24,09,42,19.40
2016,08,24,09,43,19.50
2016,08,24,09,44,19.50
2016,08,24,09,45,19.60
2016,08,24,09,46,19.70
2016,08,24,09,47,19.70
2016,08,24,09,48,19.80
2016,08,24,09,49,19.90
2016,08,24,09,50,19.90
2016,08,24,09,51,19.90
2016,08,24,09,52,20.10
2016,08,24,09,53,20.20
2016,08,24,09,54,20.20
2016,08,24,09,55,20.30
2016,08,24,09,56,20.40
2016,08,24,09,57,20.50
2016,08,24,09,58,20.60
2016,08,24,09,59,20.60
2016,08,24,10,00,20.70
2016,08,24,10,01,20.80
2016,08,24,10,02,20.90
2016,08,24,10,03,21.00
2016,08,24,10,04,21.00
2016,08,24,10,05,21.00
2016,08,24,10,06,21.10
2016,08,24,10,07,21.10
2016,08,24,10,08,21.10
2016,08,24,10,09,21.00
2016,08,24,10,10,21.00
2016,08,24,10,11,21.00
2016,08,24,10,12,21.10
2016,08,24,10,13,21.10
2016,08,24,10,14,21.10
2016,08,24,10,15,21.30
2016,08,24,10,16,21.30
2016,08,24,10,17,21.40
2016,08,24,10,18,21.40
2016,08,24,10,19,21.40
2016,08,24,10,20,21.40
2016,08,24,10,21,21.40
2016,08,24,10,22,21.40
2016,08,24,10,23,21.40
2016,08,24,10,24,21.40
2016,08,24,10,25,21.40
2016,08,24,10,26,21.30
2016,08,24,10,27,21.30
2016,08,24,10,28,21.30
2016,08,24,10,29,21.30
2016,08,24,10,30,21.30
2016,08,24,10,31,21.30
2016,08,24,10,32,21.20
2016,08,24,10,33,21.20
2016,08,24,10,34,21.20
2016,08,24,10,35,21.20
2016,08,24,10,36,21.10
2016,08,24,10,37,21.10
2016,08,24,10,38,21.10
2016,08,24,10,39,21.10
2016,08,24,10,40,21.10
2016,08,24,10,41,21.20
2016,08,24,10,42,21.30
2016,08,24,10,43,21.30
2016,08,24,10,44,21.40
2016,08,24,10,45,21.60
2016,08,24,10,46,21.60
2016,08,24,10,47,21.60
2016,08,24,10,48,21.70
2016,08,24,10,49,21.70
2016,08,24,10,50,21.80
2016,08,24,10,51,22.00
2016,08,24,10,52,22.10
2016,08,24,10,53,22.20
2016,08,24,10,54,22.30
2016,08,24,10,55,22.30
2016,08,24,10,56,22.30
2016,08,24,10,57,22.30
2016,08,24,10,58,22.30
2016,08,24,10,59,22.30
2016,08,24,11,00,22.40
2016,08,24,11,01,22.60
2016,08,24,11,02,22.70
2016,08,24,11,03,22.70
2016,08,24,11,04,22.80
2016,08,24,11,05,22.90
2016,08,24,11,06,23.00
2016,08,24,11,07,23.10
2016,08,24,11,08,23.30
2016,08,24,11,09,23.30
2016,08,24,11,10,23.30
2016,08,24,11,11,23.40
2016,08,24,11,12,23.50
2016,08,24,11,13,23.60
2016,08,24,11,14,23.60
2016,08,24,11,15,23.50
2016,08,24,11,16,23.50
2016,08,24,11,17,23.40
2016,08,24,11,18,23.40
2016,08,24,11,19,23.40
2016,08,24,11,20,23.30
2016,08,24,11,21,23.40
2016,08,24,11,22,23.40
2016,08,24,11,23,23.40
2016,08,24,11,24,23.40
2016,08,24,11,25,23.50
2016,08,24,11,26,23.60
2016,08,24,11,27,23.60
2016,08,24,11,28,23.50
2016,08,24,11,29,23.40
2016,08,24,11,30,23.30
2016,08,24,11,31,23.30
2016,08,24,11,32,23.30
2016,08,24,11,33,23.20
2016,08,24,11,34,23.10
2016,08,24,11,35,23.10
2016,08,24,11,36,23.10
2016,08,24,11,37,23.10
2016,08,24,11,38,23.20
2016,08,24,11,39,23.20
2016,08,24,11,40,23.30
2016,08,24,11,41,23.30
2016,08,24,11,42,23.30
2016,08,24,11,43,23.30
2016,08,24,11,44,23.40
2016,08,24,11,45,23.50
2016,08,24,11,46,23.60
2016,08,24,11,47,23.70
2016,08,24,11,48,23.70
2016,08,24,11,49,23.70
2016,08,24,11,50,23.80
2016,08,24,11,51,23.80
2016,08,24,11,52,23.80
2016,08,24,11,53,24.00
2016,08,24,11,54,24.10
2016,08,24,11,55,24.10
2016,08,24,11,56,24.10
2016,08,24,11,57,24.10
2016,08,24,11,58,24.10
2016,08,24,11,59,24.10
2016,08,24,12,00,24.00
2016,08,24,12,01,23.90
2016,08,24,12,02,23.90
2016,08,24,12,03,24.00
2016,08,24,12,04,23.90
2016,08,24,12,05,23.70
2016,08,24,12,06,23.60
2016,08,24,12,07,23.60
2016,08,24,12,08,23.50
2016,08,24,12,09,23.40
2016,08,24,12,10,23.40
2016,08,24,12,11,23.30
2016,08,24,12,12,23.30
2016,08,24,12,13,23.30
2016,08,24,12,14,23.30
2016,08,24,12,15,23.30
2016,08,24,12,16,23.50
2016,08,24,12,17,23.60
2016,08,24,12,18,23.70
2016,08,24,12,19,23.70
2016,08,24,12,20,23.80
2016,08,24,12,21,23.90
2016,08,24,12,22,24.00
2016,08,24,12,23,23.90
2016,08,24,12,24,23.90
2016,08,24,12,25,23.80
2016,08,24,12,26,23.70
2016,08,24,12,27,23.70
2016,08,24,12,28,23.70
2016,08,24,12,29,23.80
2016,08,24,12,30,23.80
2016,08,24,12,31,23.90
2016,08,24,12,32,23.90
2016,08,24,12,33,23.90
2016,08,24,12,34,24.00
2016,08,24,12,35,24.00
2016,08,24,12,36,23.90
2016,08,24,12,37,23.80
2016,08,24,12,38,23.70
2016,08,24,12,39,23.70
2016,08,24,12,40,23.70
2016,08,24,12,41,23.70
2016,08,24,12,42,23.80
2016,08,24,12,43,24.00
2016,08,24,12,44,24.10
2016,08,24,12,45,24.10
2016,08,24,12,46,24.00
2016,08,24,12,47,23.90
2016,08,24,12,48,24.00
2016,08,24,12,49,24.10
2016,08,24,12,50,24.10
2016,08,24,12,51,24.10
2016,08,24,12,52,24.10
2016,08,24,12,53,24.10
2016,08,24,12,54,24.00
2016,08,24,12,55,23.90
2016,08,24,12,56,23.80
2016,08,24,12,57,23.60
2016,08,24,12,58,23.60
2016,08,24,12,59,23.60
2016,08,24,13,00,23.60
2016,08,24,13,01,23.60
2016,08,24,13,02,23.50
2016,08,24,13,03,23.40
2016,08,24,13,04,23.30
2016,08,24,13,05,23.30
2016,08,24,13,06,23.30
2016,08,24,13,07,23.20
2016,08,24,13,08,23.10
2016,08,24,13,09,23.20
2016,08,24,13,10,23.30
2016,08,24,13,11,23.30
2016,08,24,13,12,23.30
2016,08,24,13,13,23.40
2016,08,24,13,14,23.40
2016,08,24,13,15,23.30
2016,08,24,13,16,23.30
2016,08,24,13,17,23.30
2016,08,24,13,18,23.20
2016,08,24,13,19,23.10
2016,08,24,13,20,23.00
2016,08,24,13,21,22.80
2016,08,24,13,22,22.80
2016,08,24,13,23,22.80
2016,08,24,13,24,22.80
2016,08,24,13,25,22.60
2016,08,24,13,26,22.60
2016,08,24,13,27,22.60
2016,08,24,13,28,22.60
2016,08,24,13,29,22.60
2016,08,24,13,30,22.80
2016,08,24,13,31,22.90
2016,08,24,13,32,23.10
2016,08,24,13,33,23.20
2016,08,24,13,34,23.30
2016,08,24,13,35,23.40
2016,08,24,13,36,23.50
2016,08,24,13,37,23.60
2016,08,24,13,38,23.70
2016,08,24,13,39,23.80
2016,08,24,13,40,23.90
2016,08,24,13,41,24.00
2016,08,24,13,42,24.10
2016,08,24,13,43,24.10
2016,08,24,13,44,24.20
2016,08,24,13,45,24.20
2016,08,24,13,46,24.20
2016,08,24,13,47,24.20
2016,08,24,13,48,24.20
2016,08,24,13,49,24.10
2016,08,24,13,50,24.10
2016,08,24,13,51,23.80
2016,08,24,13,52,23.70
2016,08,24,13,53,23.40
2016,08,24,13,54,23.30
2016,08,24,13,55,23.20
2016,08,24,13,56,23.20
2016,08,24,13,57,23.20
2016,08,24,13,58,23.20
2016,08,24,13,59,23.30
2016,08,24,14,00,23.40
2016,08,24,14,01,23.30
2016,08,24,14,02,23.30
2016,08,24,14,03,23.30
2016,08,24,14,04,23.30
2016,08,24,14,05,23.30
2016,08,24,14,06,23.40
2016,08,24,14,07,23.50
2016,08,24,14,08,23.70
2016,08,24,14,09,23.70
2016,08,24,14,10,23.70
2016,08,24,14,11,23.80
2016,08,24,14,12,24.00
2016,08,24,14,13,24.10
2016,08,24,14,14,24.10
2016,08,24,14,15,24.10
2016,08,24,14,16,24.10
2016,08,24,14,17,24.10
2016,08,24,14,18,24.10
2016,08,24,14,19,24.20
2016,08,24,14,20,24.30
2016,08,24,14,21,24.40
2016,08,24,14,22,24.40
2016,08,24,14,23,24.50
2016,08,24,14,24,24.60
2016,08,24,14,25,24.80
2016,08,24,14,26,24.90
2016,08,24,14,27,25.00
2016,08,24,14,28,25.10
2016,08,24,14,29,25.10
2016,08,24,14,30,25.20
2016,08,24,14,31,25.30
2016,08,24,14,32,25.20
2016,08,24,14,33,25.10
2016,08,24,14,34,25.10
2016,08,24,14,35,25.00
2016,08,24,14,36,24.80
2016,08,24,14,37,24.80
2016,08,24,14,38,24.50
2016,08,24,14,39,24.30
2016,08,24,14,40,24.20
2016,08,24,14,41,24.10
2016,08,24,14,42,24.10
2016,08,24,14,43,24.00
2016,08,24,14,44,24.10
2016,08,24,14,45,24.10
2016,08,24,14,46,24.10
2016,08,24,14,47,24.20
2016,08,24,14,48,24.30
2016,08,24,14,49,24.30
2016,08,24,14,50,24.40
2016,08,24,14,51,24.50
2016,08,24,14,52,24.50
2016,08,24,14,53,24.70
2016,08,24,14,54,24.80
2016,08,24,14,55,24.90
2016,08,24,14,56,24.90
2016,08,24,14,57,25.10
2016,08,24,14,58,25.20
2016,08,24,14,59,25.40
2016,08,24,15,00,25.50
2016,08,24,15,01,25.50
2016,08,24,15,02,25.50
2016,08,24,15,03,25.40
2016,08,24,15,04,25.40
2016,08,24,15,05,25.40
2016,08,24,15,06,25.40
2016,08,24,15,07,25.40
2016,08,24,15,08,25.50
2016,08,24,15,09,25.50
2016,08,24,15,10,25.50
2016,08,24,15,11,25.40
2016,08,24,15,12,25.50
2016,08,24,15,13,25.60
2016,08,24,15,14,25.80
2016,08,24,15,15,25.90
2016,08,24,15,16,26.20
2016,08,24,15,17,26.40
2016,08,24,15,18,26.60
2016,08,24,15,19,26.70
2016,08,24,15,20,26.90
2016,08,24,15,21,27.00
2016,08,24,15,22,27.10
2016,08,24,15,23,27.20
2016,08,24,15,24,27.20
2016,08,24,15,25,27.10
2016,08,24,15,26,27.00
2016,08,24,15,27,26.90
2016,08,24,15,28,26.80
2016,08,24,15,29,26.80
2016,08,24,15,30,26.90
2016,08,24,15,31,26.90
2016,08,24,15,32,27.00
2016,08,24,15,33,27.20
2016,08,24,15,34,27.30
2016,08,24,15,35,27.30
2016,08,24,15,36,27.30
2016,08,24,15,37,27.30
2016,08,24,15,38,27.40
2016,08,24,15,39,27.30
2016,08,24,15,40,27.30
2016,08,24,15,41,27.20
2016,08,24,15,42,27.30
2016,08,24,15,43,27.30
2016,08,24,15,44,27.30
2016,08,24,15,45,27.30
2016,08,24,15,46,27.40
2016,08,24,15,47,27.50
2016,08,24,15,48,27.60
2016,08,24,15,49,27.60
2016,08,24,15,50,27.70
2016,08,24,15,51,27.70
2016,08,24,15,52,27.80
2016,08,24,15,53,27.80
2016,08,24,15,54,27.80
2016,08,24,15,55,27.80
2016,08,24,15,56,27.90
2016,08,24,15,57,27.90
2016,08,24,15,58,27.90
2016,08,24,15,59,27.80
2016,08,24,16,00,27.90
2016,08,24,16,01,27.90
2016,08,24,16,02,27.90
2016,08,24,16,03,27.90
2016,08,24,16,04,27.90
2016,08,24,16,05,28.00
2016,08,24,16,06,27.90
2016,08,24,16,07,27.80
2016,08,24,16,08,27.70
2016,08,24,16,09,27.70
2016,08,24,16,10,27.70
2016,08,24,16,11,27.70
2016,08,24,16,12,27.70
2016,08,24,16,13,27.70
2016,08,24,16,14,27.70
2016,08,24,16,15,27.60
2016,08,24,16,16,27.60
2016,08,24,16,17,27.60
2016,08,24,16,18,27.70
2016,08,24,17,02,25.70
2016,08,24,17,03,25.50
2016,08,24,17,04,25.40
2016,08,24,17,05,25.30
2016,08,24,17,06,25.00
2016,08,24,17,07,24.70
2016,08,24,17,08,24.40
2016,08,24,17,09,24.30
2016,08,24,17,10,24.20
2016,08,24,17,11,24.10
2016,08,24,17,12,24.10
2016,08,24,17,13,23.90
2016,08,24,17,14,23.90
2016,08,24,17,15,23.80
2016,08,24,17,16,23.70
2016,08,24,17,17,23.70
2016,08,24,17,18,23.80
2016,08,24,17,19,24.00
2016,08,24,17,20,24.10
2016,08,24,17,21,24.10
2016,08,24,17,22,24.20
2016,08,24,17,23,24.40
2016,08,24,17,24,24.40
2016,08,24,17,25,24.50
2016,08,24,17,26,24.60
2016,08,24,17,27,24.60
2016,08,24,17,28,24.70
2016,08,24,17,29,24.70
2016,08,24,17,30,24.60
2016,08,24,17,31,24.60
2016,08,24,17,32,24.70
2016,08,24,17,33,24.70
2016,08,24,17,34,24.80
2016,08,24,17,35,24.90
2016,08,24,17,36,25.00
2016,08,24,17,37,24.90
2016,08,24,17,38,24.90
2016,08,24,17,39,24.90
2016,08,24,17,40,24.90
2016,08,24,17,41,25.00
2016,08,24,17,42,24.90
2016,08,24,17,43,24.90
2016,08,24,17,44,24.90
2016,08,24,17,45,24.90
2016,08,24,17,46,25.00
2016,08,24,17,47,25.10
2016,08,24,17,48,25.10
2016,08,24,17,49,25.20
2016,08,24,17,50,25.20
2016,08,24,17,51,25.20
2016,08,24,17,52,25.20
2016,08,24,17,53,25.20
2016,08,24,17,54,25.30
2016,08,24,17,55,25.30
2016,08,24,17,56,25.30
2016,08,24,17,57,25.30
2016,08,24,17,58,25.20
2016,08,24,17,59,25.10
2016,08,24,18,00,24.90
2016,08,24,18,01,24.80
2016,08,24,18,02,24.60